contact:dominique.lefevre@mio.osupytheas.fr, maurice.libes@osupytheas.fr, didier.mallarino@osupytheas.fr
Project:EMSO http://www.emso-fr.org/EMSO-France
Depth: 2436.0 m
Title:EMSO Ligure Ouest : Data MII capteur MICROCAT
DateTime_Computer,Latitude,Longitude,Temperature,Conductivity,Pressure,DateTime_Instrument
DateTime_Computer,Latitude,Longitude,degC,S m-1,dbar,DateTime_Instrument
2023-04-07T00:02:37Z,42.805,6.029,13.3026,4.60102,2470.614,2023-4-07T02:05:29Z
2023-04-07T00:05:40Z,42.805,6.029,13.3040,4.60097,2470.646,2023-4-07T02:08:32Z
2023-04-07T00:08:43Z,42.805,6.029,13.3030,4.60095,2470.6,2023-4-07T02:11:35Z
2023-04-07T00:11:46Z,42.805,6.029,13.3028,4.60093,2470.6,2023-4-07T02:14:38Z
2023-04-07T00:14:49Z,42.805,6.029,13.3037,4.60122,2470.614,2023-4-07T02:17:41Z
2023-04-07T00:17:52Z,42.805,6.029,13.3039,4.60112,2470.591,2023-4-07T02:20:44Z
2023-04-07T00:20:55Z,42.805,6.029,13.3041,4.60113,2470.614,2023-4-07T02:23:47Z
2023-04-07T00:23:58Z,42.805,6.029,13.3038,4.60112,2470.624,2023-4-07T02:26:51Z
2023-04-07T00:27:02Z,42.805,6.029,13.3042,4.60129,2470.6,2023-4-07T02:29:54Z
2023-04-07T00:30:05Z,42.805,6.029,13.3040,4.60121,2470.6,2023-4-07T02:32:57Z
2023-04-07T00:33:08Z,42.805,6.029,13.3029,4.60104,2470.6,2023-4-07T02:36:00Z
2023-04-07T00:36:11Z,42.805,6.029,13.3031,4.60121,2470.6,2023-4-07T02:39:03Z
2023-04-07T00:39:14Z,42.805,6.029,13.3029,4.60110,2470.577,2023-4-07T02:42:06Z
2023-04-07T00:42:17Z,42.805,6.029,13.3036,4.60117,2470.577,2023-4-07T02:45:09Z
2023-04-07T00:45:20Z,42.805,6.029,13.3032,4.60107,2470.553,2023-4-07T02:48:12Z
2023-04-07T00:48:23Z,42.805,6.029,13.3029,4.60119,2470.553,2023-4-07T02:51:15Z
2023-04-07T00:51:26Z,42.805,6.029,13.3038,4.60125,2470.577,2023-4-07T02:54:18Z
2023-04-07T00:54:29Z,42.805,6.029,13.3029,4.60109,2470.567,2023-4-07T02:57:21Z
2023-04-07T00:57:32Z,42.805,6.029,13.3030,4.60104,2470.591,2023-4-07T03:00:24Z
2023-04-07T01:00:35Z,42.805,6.029,13.3042,4.60119,2470.577,2023-4-07T03:03:27Z
2023-04-07T01:03:38Z,42.805,6.029,13.3047,4.60127,2470.577,2023-4-07T03:06:31Z
2023-04-07T01:06:41Z,42.805,6.029,13.3032,4.60106,2470.577,2023-4-07T03:09:34Z
2023-04-07T01:09:45Z,42.805,6.029,13.3041,4.60114,2470.567,2023-4-07T03:12:37Z
2023-04-07T01:12:48Z,42.805,6.029,13.3038,4.60123,2470.577,2023-4-07T03:15:40Z
2023-04-07T01:15:51Z,42.805,6.029,13.3036,4.60122,2470.591,2023-4-07T03:18:43Z
2023-04-07T01:18:54Z,42.805,6.029,13.3032,4.60125,2470.6,2023-4-07T03:21:46Z
2023-04-07T01:21:57Z,42.805,6.029,13.3029,4.60109,2470.567,2023-4-07T03:24:49Z
2023-04-07T01:25:00Z,42.805,6.029,13.3028,4.60100,2470.591,2023-4-07T03:27:52Z
2023-04-07T01:28:03Z,42.805,6.029,13.3033,4.60122,2470.591,2023-4-07T03:30:55Z
2023-04-07T01:31:06Z,42.805,6.029,13.3039,4.60126,2470.553,2023-4-07T03:33:58Z
2023-04-07T01:34:09Z,42.805,6.029,13.3028,4.60110,2470.553,2023-4-07T03:37:01Z
2023-04-07T01:37:12Z,42.805,6.029,13.3031,4.60125,2470.553,2023-4-07T03:40:04Z
2023-04-07T01:40:15Z,42.805,6.029,13.3032,4.60115,2470.553,2023-4-07T03:43:07Z
2023-04-07T01:43:18Z,42.805,6.029,13.3034,4.60130,2470.553,2023-4-07T03:46:11Z
2023-04-07T01:46:21Z,42.805,6.029,13.3030,4.60115,2470.553,2023-4-07T03:49:14Z
2023-04-07T01:49:25Z,42.805,6.029,13.3026,4.60097,2470.567,2023-4-07T03:52:17Z
2023-04-07T01:52:28Z,42.805,6.029,13.3034,4.60124,2470.567,2023-4-07T03:55:20Z
2023-04-07T01:55:31Z,42.805,6.029,13.3032,4.60125,2470.591,2023-4-07T03:58:23Z
2023-04-07T01:58:34Z,42.805,6.029,13.3033,4.60103,2470.553,2023-4-07T04:01:26Z
2023-04-07T02:01:37Z,42.805,6.029,13.3029,4.60097,2470.553,2023-4-07T04:04:29Z
2023-04-07T02:04:40Z,42.805,6.029,13.3032,4.60110,2470.577,2023-4-07T04:07:32Z
2023-04-07T02:07:43Z,42.805,6.029,13.3048,4.60134,2470.53,2023-4-07T04:10:35Z
2023-04-07T02:10:46Z,42.805,6.029,13.3025,4.60104,2470.53,2023-4-07T04:13:38Z
2023-04-07T02:13:49Z,42.805,6.029,13.3033,4.60127,2470.553,2023-4-07T04:16:41Z
2023-04-07T02:16:52Z,42.805,6.029,13.3046,4.60120,2470.53,2023-4-07T04:19:44Z
2023-04-07T02:19:55Z,42.805,6.029,13.3039,4.60120,2470.553,2023-4-07T04:22:47Z
2023-04-07T02:22:58Z,42.805,6.029,13.3046,4.60125,2470.507,2023-4-07T04:25:51Z
2023-04-07T02:26:01Z,42.805,6.029,13.3045,4.60116,2470.591,2023-4-07T04:28:54Z
2023-04-07T02:29:05Z,42.805,6.029,13.3045,4.60123,2470.553,2023-4-07T04:31:57Z
2023-04-07T02:32:08Z,42.805,6.029,13.3039,4.60119,2470.516,2023-4-07T04:35:00Z
2023-04-07T02:35:11Z,42.805,6.029,13.3050,4.60119,2470.553,2023-4-07T04:38:03Z
2023-04-07T02:38:14Z,42.805,6.029,13.3031,4.60132,2470.53,2023-4-07T04:41:06Z
2023-04-07T02:41:17Z,42.805,6.029,13.3041,4.60129,2470.553,2023-4-07T04:44:09Z
2023-04-07T02:44:20Z,42.805,6.029,13.3031,4.60140,2470.553,2023-4-07T04:47:12Z
2023-04-07T02:47:23Z,42.805,6.029,13.3038,4.60119,2470.53,2023-4-07T04:50:15Z
2023-04-07T02:50:26Z,42.805,6.029,13.3031,4.60109,2470.553,2023-4-07T04:53:18Z
2023-04-07T02:53:29Z,42.805,6.029,13.3040,4.60110,2470.577,2023-4-07T04:56:21Z
2023-04-07T02:56:32Z,42.805,6.029,13.3034,4.60120,2470.577,2023-4-07T04:59:24Z
2023-04-07T02:59:35Z,42.805,6.029,13.3041,4.60113,2470.577,2023-4-07T05:02:27Z
2023-04-07T03:02:38Z,42.805,6.029,13.3034,4.60114,2470.553,2023-4-07T05:05:31Z
2023-04-07T03:05:41Z,42.805,6.029,13.3041,4.60125,2470.53,2023-4-07T05:08:34Z
2023-04-07T03:08:45Z,42.805,6.029,13.3042,4.60114,2470.53,2023-4-07T05:11:37Z
2023-04-07T03:11:48Z,42.805,6.029,13.3034,4.60126,2470.553,2023-4-07T05:14:40Z
2023-04-07T03:14:51Z,42.805,6.029,13.3034,4.60127,2470.553,2023-4-07T05:17:43Z
2023-04-07T03:17:54Z,42.805,6.029,13.3036,4.60132,2470.577,2023-4-07T05:20:46Z
2023-04-07T03:20:57Z,42.805,6.029,13.3044,4.60120,2470.567,2023-4-07T05:23:49Z
2023-04-07T03:24:00Z,42.805,6.029,13.3031,4.60112,2470.553,2023-4-07T05:26:52Z
2023-04-07T03:27:03Z,42.805,6.029,13.3039,4.60119,2470.553,2023-4-07T05:29:55Z
2023-04-07T03:30:06Z,42.805,6.029,13.3031,4.60107,2470.567,2023-4-07T05:32:58Z
2023-04-07T03:33:09Z,42.805,6.029,13.3028,4.60120,2470.567,2023-4-07T05:36:01Z
2023-04-07T03:36:12Z,42.805,6.029,13.3049,4.60125,2470.577,2023-4-07T05:39:04Z
2023-04-07T03:39:15Z,42.805,6.029,13.3041,4.60131,2470.53,2023-4-07T05:42:07Z
2023-04-07T03:42:18Z,42.805,6.029,13.3024,4.60117,2470.591,2023-4-07T05:45:11Z
2023-04-07T03:45:21Z,42.805,6.029,13.3039,4.60120,2470.567,2023-4-07T05:48:14Z
2023-04-07T03:48:25Z,42.805,6.029,13.3042,4.60125,2470.567,2023-4-07T05:51:17Z
2023-04-07T03:51:28Z,42.805,6.029,13.3055,4.60139,2470.591,2023-4-07T05:54:20Z
2023-04-07T03:54:31Z,42.805,6.029,13.3048,4.60143,2470.553,2023-4-07T05:57:23Z
2023-04-07T03:57:34Z,42.805,6.029,13.3046,4.60139,2470.577,2023-4-07T06:00:26Z
2023-04-07T04:00:37Z,42.805,6.029,13.3038,4.60132,2470.6,2023-4-07T06:03:29Z
2023-04-07T04:03:40Z,42.805,6.029,13.3041,4.60111,2470.6,2023-4-07T06:06:32Z
2023-04-07T04:06:43Z,42.805,6.029,13.3045,4.60115,2470.614,2023-4-07T06:09:35Z
2023-04-07T04:09:46Z,42.805,6.029,13.3032,4.60125,2470.553,2023-4-07T06:12:38Z
2023-04-07T04:12:49Z,42.805,6.029,13.3034,4.60104,2470.577,2023-4-07T06:15:41Z
2023-04-07T04:15:52Z,42.805,6.029,13.3038,4.60097,2470.6,2023-4-07T06:18:44Z
2023-04-07T04:18:55Z,42.805,6.029,13.3032,4.60113,2470.6,2023-4-07T06:21:47Z
2023-04-07T04:21:58Z,42.805,6.029,13.3045,4.60111,2470.6,2023-4-07T06:24:51Z
2023-04-07T04:25:01Z,42.805,6.029,13.3047,4.60138,2470.637,2023-4-07T06:27:54Z
2023-04-07T04:28:05Z,42.805,6.029,13.3050,4.60134,2470.577,2023-4-07T06:30:57Z
2023-04-07T04:31:08Z,42.805,6.029,13.3042,4.60127,2470.6,2023-4-07T06:34:00Z
2023-04-07T04:34:11Z,42.805,6.029,13.3052,4.60132,2470.637,2023-4-07T06:37:03Z
2023-04-07T04:37:14Z,42.805,6.029,13.3048,4.60121,2470.624,2023-4-07T06:40:06Z
2023-04-07T04:40:17Z,42.805,6.029,13.3056,4.60135,2470.61,2023-4-07T06:43:09Z
2023-04-07T04:43:20Z,42.805,6.029,13.3037,4.60133,2470.637,2023-4-07T06:46:12Z
2023-04-07T04:46:23Z,42.805,6.029,13.3050,4.60139,2470.624,2023-4-07T06:49:15Z
2023-04-07T04:49:26Z,42.805,6.029,13.3043,4.60127,2470.614,2023-4-07T06:52:18Z
2023-04-07T04:52:29Z,42.805,6.029,13.3031,4.60147,2470.646,2023-4-07T06:55:21Z
2023-04-07T04:55:32Z,42.805,6.029,13.3030,4.60104,2470.637,2023-4-07T06:58:24Z
2023-04-07T04:58:35Z,42.805,6.029,13.3029,4.60092,2470.646,2023-4-07T07:01:28Z
2023-04-07T05:01:38Z,42.805,6.029,13.3038,4.60115,2470.637,2023-4-07T07:04:31Z
2023-04-07T05:04:41Z,42.805,6.029,13.3048,4.60147,2470.646,2023-4-07T07:07:34Z
2023-04-07T05:07:45Z,42.805,6.029,13.3050,4.60128,2470.646,2023-4-07T07:10:37Z
2023-04-07T05:10:48Z,42.805,6.029,13.3052,4.60135,2470.646,2023-4-07T07:13:40Z
2023-04-07T05:13:51Z,42.805,6.029,13.3038,4.60115,2470.67,2023-4-07T07:16:43Z
2023-04-07T05:16:54Z,42.805,6.029,13.3025,4.60114,2470.646,2023-4-07T07:19:46Z
2023-04-07T05:19:57Z,42.805,6.029,13.3030,4.60114,2470.707,2023-4-07T07:22:49Z
2023-04-07T05:23:00Z,42.805,6.029,13.3046,4.60133,2470.646,2023-4-07T07:25:52Z
2023-04-07T05:26:03Z,42.805,6.029,13.3041,4.60132,2470.67,2023-4-07T07:28:55Z
2023-04-07T05:29:06Z,42.805,6.029,13.3046,4.60139,2470.646,2023-4-07T07:31:58Z
2023-04-07T05:32:09Z,42.805,6.029,13.3031,4.60142,2470.693,2023-4-07T07:35:01Z
2023-04-07T05:35:12Z,42.805,6.029,13.3034,4.60132,2470.67,2023-4-07T07:38:04Z
2023-04-07T05:38:15Z,42.805,6.029,13.3029,4.60110,2470.693,2023-4-07T07:41:08Z
2023-04-07T05:41:18Z,42.805,6.029,13.3024,4.60133,2470.684,2023-4-07T07:44:11Z
2023-04-07T05:44:21Z,42.805,6.029,13.3054,4.60128,2470.67,2023-4-07T07:47:14Z
2023-04-07T05:47:25Z,42.805,6.029,13.3049,4.60132,2470.717,2023-4-07T07:50:17Z
2023-04-07T05:50:28Z,42.805,6.029,13.3041,4.60134,2470.707,2023-4-07T07:53:20Z
2023-04-07T05:53:31Z,42.805,6.029,13.3046,4.60145,2470.73,2023-4-07T07:56:23Z
2023-04-07T05:56:34Z,42.805,6.029,13.3046,4.60132,2470.74,2023-4-07T07:59:26Z
2023-04-07T05:59:37Z,42.805,6.029,13.3029,4.60104,2470.707,2023-4-07T08:02:29Z
2023-04-07T06:02:40Z,42.805,6.029,13.3029,4.60117,2470.717,2023-4-07T08:05:32Z
2023-04-07T06:05:43Z,42.805,6.029,13.3029,4.60115,2470.763,2023-4-07T08:08:35Z
2023-04-07T06:08:46Z,42.805,6.029,13.3029,4.60112,2470.707,2023-4-07T08:11:38Z
2023-04-07T06:11:49Z,42.805,6.029,13.3031,4.60109,2470.707,2023-4-07T08:14:41Z
2023-04-07T06:14:52Z,42.805,6.029,13.3046,4.60123,2470.679,2023-4-07T08:17:44Z
2023-04-07T06:17:55Z,42.805,6.029,13.3025,4.60102,2470.754,2023-4-07T08:20:48Z
2023-04-07T06:20:58Z,42.805,6.029,13.3035,4.60140,2470.717,2023-4-07T08:23:51Z
2023-04-07T06:24:01Z,42.805,6.029,13.3034,4.60113,2470.74,2023-4-07T08:26:54Z
2023-04-07T06:27:05Z,42.805,6.029,13.3035,4.60116,2470.717,2023-4-07T08:29:57Z
2023-04-07T06:30:08Z,42.805,6.029,13.3031,4.60125,2470.754,2023-4-07T08:33:00Z
2023-04-07T06:33:11Z,42.805,6.029,13.3034,4.60113,2470.763,2023-4-07T08:36:03Z
2023-04-07T06:36:14Z,42.805,6.029,13.3029,4.60107,2470.717,2023-4-07T08:39:06Z
2023-04-07T06:39:17Z,42.805,6.029,13.3030,4.60123,2470.74,2023-4-07T08:42:09Z
2023-04-07T06:42:20Z,42.805,6.029,13.3034,4.60129,2470.763,2023-4-07T08:45:12Z
2023-04-07T06:45:23Z,42.805,6.029,13.3031,4.60107,2470.754,2023-4-07T08:48:15Z
2023-04-07T06:48:26Z,42.805,6.029,13.3031,4.60105,2470.754,2023-4-07T08:51:18Z
2023-04-07T06:51:29Z,42.805,6.029,13.3029,4.60107,2470.763,2023-4-07T08:54:21Z
2023-04-07T06:54:32Z,42.805,6.029,13.3037,4.60114,2470.74,2023-4-07T08:57:24Z
2023-04-07T06:57:35Z,42.805,6.029,13.3033,4.60120,2470.777,2023-4-07T09:00:28Z
2023-04-07T07:00:38Z,42.805,6.029,13.3029,4.60107,2470.763,2023-4-07T09:03:31Z
2023-04-07T07:03:41Z,42.805,6.029,13.3035,4.60119,2470.787,2023-4-07T09:06:34Z
2023-04-07T07:06:44Z,42.805,6.029,13.3029,4.60107,2470.777,2023-4-07T09:09:37Z
2023-04-07T07:09:48Z,42.805,6.029,13.3035,4.60117,2470.754,2023-4-07T09:12:40Z
2023-04-07T07:12:51Z,42.805,6.029,13.3031,4.60112,2470.787,2023-4-07T09:15:43Z
2023-04-07T07:15:54Z,42.805,6.029,13.3043,4.60127,2470.777,2023-4-07T09:18:46Z
2023-04-07T07:18:57Z,42.805,6.029,13.3037,4.60122,2470.754,2023-4-07T09:21:49Z
2023-04-07T07:22:00Z,42.805,6.029,13.3027,4.60132,2470.75,2023-4-07T09:24:52Z
2023-04-07T07:25:03Z,42.805,6.029,13.3027,4.60099,2470.763,2023-4-07T09:27:55Z
2023-04-07T07:28:06Z,42.805,6.029,13.3027,4.60104,2470.787,2023-4-07T09:30:58Z
2023-04-07T07:31:09Z,42.805,6.029,13.3031,4.60115,2470.74,2023-4-07T09:34:01Z
2023-04-07T07:34:12Z,42.805,6.029,13.3030,4.60105,2470.763,2023-4-07T09:37:04Z
2023-04-07T07:37:15Z,42.805,6.029,13.3035,4.60114,2470.763,2023-4-07T09:40:08Z
2023-04-07T07:40:18Z,42.805,6.029,13.3026,4.60099,2470.74,2023-4-07T09:43:11Z
2023-04-07T07:43:21Z,42.805,6.029,13.3029,4.60103,2470.787,2023-4-07T09:46:14Z
2023-04-07T07:46:25Z,42.805,6.029,13.3035,4.60107,2470.763,2023-4-07T09:49:17Z
2023-04-07T07:49:28Z,42.805,6.029,13.3036,4.60117,2470.763,2023-4-07T09:52:20Z
2023-04-07T07:52:31Z,42.805,6.029,13.3039,4.60128,2470.777,2023-4-07T09:55:23Z
2023-04-07T07:55:34Z,42.805,6.029,13.3038,4.60138,2470.763,2023-4-07T09:58:26Z
2023-04-07T07:58:37Z,42.805,6.029,13.3031,4.60129,2470.754,2023-4-07T10:01:29Z
2023-04-07T08:01:40Z,42.805,6.029,13.3039,4.60127,2470.763,2023-4-07T10:04:32Z
2023-04-07T08:04:43Z,42.805,6.029,13.3036,4.60123,2470.763,2023-4-07T10:07:35Z
2023-04-07T08:07:46Z,42.805,6.029,13.3028,4.60110,2470.763,2023-4-07T10:10:38Z
2023-04-07T08:10:49Z,42.805,6.029,13.3036,4.60108,2470.777,2023-4-07T10:13:41Z
2023-04-07T08:13:52Z,42.805,6.029,13.3037,4.60122,2470.777,2023-4-07T10:16:45Z
2023-04-07T08:16:55Z,42.805,6.029,13.3032,4.60112,2470.74,2023-4-07T10:19:48Z
2023-04-07T08:19:58Z,42.805,6.029,13.3033,4.60118,2470.74,2023-4-07T10:22:51Z
2023-04-07T08:23:01Z,42.805,6.029,13.3034,4.60123,2470.777,2023-4-07T10:25:54Z
2023-04-07T08:26:05Z,42.805,6.029,13.3028,4.60114,2470.763,2023-4-07T10:28:57Z
2023-04-07T08:29:08Z,42.805,6.029,13.3031,4.60110,2470.763,2023-4-07T10:32:00Z
2023-04-07T08:32:10Z,42.805,6.029,13.3029,4.60110,2470.717,2023-4-07T10:35:03Z
2023-04-07T08:35:13Z,42.805,6.029,13.3035,4.60126,2470.74,2023-4-07T10:38:06Z
2023-04-07T08:38:16Z,42.805,6.029,13.3029,4.60121,2470.787,2023-4-07T10:41:09Z
2023-04-07T08:41:20Z,42.805,6.029,13.3034,4.60117,2470.763,2023-4-07T10:44:12Z
2023-04-07T08:44:23Z,42.805,6.029,13.3027,4.60113,2470.763,2023-4-07T10:47:15Z
2023-04-07T08:47:26Z,42.805,6.029,13.3038,4.60106,2470.754,2023-4-07T10:50:18Z
2023-04-07T08:50:29Z,42.805,6.029,13.3030,4.60112,2470.717,2023-4-07T10:53:21Z
2023-04-07T08:53:32Z,42.805,6.029,13.3033,4.60106,2470.754,2023-4-07T10:56:24Z
2023-04-07T08:56:35Z,42.805,6.029,13.3032,4.60103,2470.754,2023-4-07T10:59:27Z
2023-04-07T08:59:38Z,42.805,6.029,13.3030,4.60099,2470.73,2023-4-07T11:02:30Z
2023-04-07T09:02:41Z,42.805,6.029,13.3032,4.60104,2470.74,2023-4-07T11:05:33Z
2023-04-07T09:05:44Z,42.805,6.029,13.3026,4.60109,2470.717,2023-4-07T11:08:36Z
2023-04-07T09:08:47Z,42.805,6.029,13.3024,4.60096,2470.754,2023-4-07T11:11:40Z
2023-04-07T09:11:50Z,42.805,6.029,13.3024,4.60098,2470.777,2023-4-07T11:14:43Z
2023-04-07T09:14:53Z,42.805,6.029,13.3031,4.60108,2470.73,2023-4-07T11:17:46Z
2023-04-07T09:17:56Z,42.805,6.029,13.3026,4.60105,2470.74,2023-4-07T11:20:49Z
2023-04-07T09:21:00Z,42.805,6.029,13.3030,4.60097,2470.717,2023-4-07T11:23:52Z
2023-04-07T09:24:03Z,42.805,6.029,13.3030,4.60099,2470.74,2023-4-07T11:26:55Z
2023-04-07T09:27:06Z,42.805,6.029,13.3024,4.60101,2470.717,2023-4-07T11:29:58Z
2023-04-07T09:30:09Z,42.805,6.029,13.3029,4.60092,2470.707,2023-4-07T11:33:01Z
2023-04-07T09:33:12Z,42.805,6.029,13.3030,4.60104,2470.73,2023-4-07T11:36:04Z
2023-04-07T09:36:15Z,42.805,6.029,13.3035,4.60101,2470.74,2023-4-07T11:39:07Z
2023-04-07T09:39:18Z,42.805,6.029,13.3025,4.60107,2470.717,2023-4-07T11:42:10Z
2023-04-07T09:42:21Z,42.805,6.029,13.3029,4.60117,2470.754,2023-4-07T11:45:13Z
2023-04-07T09:45:24Z,42.805,6.029,13.3020,4.60094,2470.717,2023-4-07T11:48:17Z
2023-04-07T09:48:27Z,42.805,6.029,13.3027,4.60089,2470.693,2023-4-07T11:51:20Z
2023-04-07T09:51:30Z,42.805,6.029,13.3029,4.60099,2470.707,2023-4-07T11:54:23Z
2023-04-07T09:54:33Z,42.805,6.029,13.3034,4.60104,2470.717,2023-4-07T11:57:26Z
2023-04-07T09:57:37Z,42.805,6.029,13.3034,4.60107,2470.73,2023-4-07T12:00:29Z
2023-04-07T10:00:40Z,42.805,6.029,13.3027,4.60095,2470.67,2023-4-07T12:03:32Z
2023-04-07T10:03:43Z,42.805,6.029,13.3029,4.60092,2470.73,2023-4-07T12:06:35Z
2023-04-07T10:06:46Z,42.805,6.029,13.3026,4.60097,2470.73,2023-4-07T12:09:38Z
2023-04-07T10:09:49Z,42.805,6.029,13.3026,4.60094,2470.67,2023-4-07T12:12:41Z
2023-04-07T10:12:52Z,42.805,6.029,13.3029,4.60089,2470.693,2023-4-07T12:15:44Z
2023-04-07T10:15:55Z,42.805,6.029,13.3020,4.60087,2470.646,2023-4-07T12:18:47Z
2023-04-07T10:18:58Z,42.805,6.029,13.3020,4.60087,2470.693,2023-4-07T12:21:50Z
2023-04-07T10:22:01Z,42.805,6.029,13.3027,4.60087,2470.693,2023-4-07T12:24:54Z
2023-04-07T10:25:04Z,42.805,6.029,13.3025,4.60090,2470.67,2023-4-07T12:27:57Z
2023-04-07T10:28:07Z,42.805,6.029,13.3024,4.60092,2470.67,2023-4-07T12:31:00Z
2023-04-07T10:31:10Z,42.805,6.029,13.3021,4.60087,2470.67,2023-4-07T12:34:03Z
2023-04-07T10:34:14Z,42.805,6.029,13.3031,4.60097,2470.67,2023-4-07T12:37:06Z
2023-04-07T10:37:17Z,42.805,6.029,13.3026,4.60092,2470.67,2023-4-07T12:40:09Z
2023-04-07T10:40:20Z,42.805,6.029,13.3031,4.60097,2470.67,2023-4-07T12:43:12Z
2023-04-07T10:43:23Z,42.805,6.029,13.3022,4.60087,2470.693,2023-4-07T12:46:15Z
2023-04-07T10:46:26Z,42.805,6.029,13.3021,4.60089,2470.707,2023-4-07T12:49:18Z
2023-04-07T10:49:29Z,42.805,6.029,13.3023,4.60087,2470.67,2023-4-07T12:52:21Z
2023-04-07T10:52:32Z,42.805,6.029,13.3028,4.60098,2470.67,2023-4-07T12:55:24Z
2023-04-07T10:55:35Z,42.805,6.029,13.3028,4.60094,2470.67,2023-4-07T12:58:27Z
2023-04-07T10:58:38Z,42.805,6.029,13.3027,4.60102,2470.646,2023-4-07T13:01:31Z
2023-04-07T11:01:41Z,42.805,6.029,13.3028,4.60091,2470.646,2023-4-07T13:04:34Z
2023-04-07T11:04:44Z,42.805,6.029,13.3021,4.60088,2470.646,2023-4-07T13:07:37Z
2023-04-07T11:07:47Z,42.805,6.029,13.3021,4.60087,2470.684,2023-4-07T13:10:40Z
2023-04-07T11:10:50Z,42.805,6.029,13.3030,4.60088,2470.646,2023-4-07T13:13:43Z
2023-04-07T11:13:54Z,42.805,6.029,13.3029,4.60091,2470.646,2023-4-07T13:16:46Z
2023-04-07T11:16:57Z,42.805,6.029,13.3021,4.60086,2470.693,2023-4-07T13:19:49Z
2023-04-07T11:20:00Z,42.805,6.029,13.3026,4.60108,2470.624,2023-4-07T13:22:52Z
2023-04-07T11:23:03Z,42.805,6.029,13.3026,4.60088,2470.646,2023-4-07T13:25:55Z
2023-04-07T11:26:06Z,42.805,6.029,13.3027,4.60098,2470.637,2023-4-07T13:28:58Z
2023-04-07T11:29:09Z,42.805,6.029,13.3023,4.60089,2470.646,2023-4-07T13:32:01Z
2023-04-07T11:32:12Z,42.805,6.029,13.3024,4.60087,2470.637,2023-4-07T13:35:04Z
2023-04-07T11:35:15Z,42.805,6.029,13.3025,4.60089,2470.6,2023-4-07T13:38:08Z
2023-04-07T11:38:18Z,42.805,6.029,13.3025,4.60089,2470.661,2023-4-07T13:41:11Z
2023-04-07T11:41:21Z,42.805,6.029,13.3025,4.60084,2470.624,2023-4-07T13:44:14Z
2023-04-07T11:44:24Z,42.805,6.029,13.3026,4.60084,2470.6,2023-4-07T13:47:17Z
2023-04-07T11:47:28Z,42.805,6.029,13.3026,4.60102,2470.614,2023-4-07T13:50:20Z
2023-04-07T11:50:31Z,42.805,6.029,13.3025,4.60089,2470.637,2023-4-07T13:53:23Z
2023-04-07T11:53:34Z,42.805,6.029,13.3026,4.60102,2470.624,2023-4-07T13:56:26Z
2023-04-07T11:56:37Z,42.805,6.029,13.3025,4.60087,2470.624,2023-4-07T13:59:29Z
2023-04-07T11:59:40Z,42.805,6.029,13.3029,4.60097,2470.646,2023-4-07T14:02:32Z
2023-04-07T12:02:43Z,42.805,6.029,13.3028,4.60089,2470.646,2023-4-07T14:05:35Z
2023-04-07T12:05:46Z,42.805,6.029,13.3028,4.60089,2470.637,2023-4-07T14:08:38Z
2023-04-07T12:08:49Z,42.805,6.029,13.3020,4.60095,2470.624,2023-4-07T14:11:41Z
2023-04-07T12:11:52Z,42.805,6.029,13.3021,4.60092,2470.624,2023-4-07T14:14:45Z
2023-04-07T12:14:55Z,42.805,6.029,13.3026,4.60093,2470.6,2023-4-07T14:17:48Z
2023-04-07T12:17:58Z,42.805,6.029,13.3029,4.60088,2470.624,2023-4-07T14:20:51Z
2023-04-07T12:21:01Z,42.805,6.029,13.3024,4.60084,2470.614,2023-4-07T14:23:54Z
2023-04-07T12:24:04Z,42.805,6.029,13.3025,4.60083,2470.6,2023-4-07T14:26:57Z
2023-04-07T12:27:08Z,42.805,6.029,13.3026,4.60087,2470.6,2023-4-07T14:30:00Z
2023-04-07T12:30:10Z,42.805,6.029,13.3028,4.60089,2470.6,2023-4-07T14:33:02Z
2023-04-07T12:33:13Z,42.805,6.029,13.3023,4.60099,2470.553,2023-4-07T14:36:05Z
2023-04-07T12:36:16Z,42.805,6.029,13.3029,4.60102,2470.567,2023-4-07T14:39:08Z
2023-04-07T12:39:19Z,42.805,6.029,13.3024,4.60088,2470.591,2023-4-07T14:42:11Z
2023-04-07T12:42:22Z,42.805,6.029,13.3026,4.60089,2470.577,2023-4-07T14:45:15Z
2023-04-07T12:45:25Z,42.805,6.029,13.3023,4.60084,2470.553,2023-4-07T14:48:18Z
2023-04-07T12:48:28Z,42.805,6.029,13.3028,4.60097,2470.553,2023-4-07T14:51:21Z
2023-04-07T12:51:31Z,42.805,6.029,13.3026,4.60093,2470.591,2023-4-07T14:54:24Z
2023-04-07T12:54:34Z,42.805,6.029,13.3027,4.60102,2470.577,2023-4-07T14:57:27Z
2023-04-07T12:57:38Z,42.805,6.029,13.3023,4.60094,2470.591,2023-4-07T15:00:30Z
2023-04-07T13:00:41Z,42.805,6.029,13.3021,4.60092,2470.553,2023-4-07T15:03:33Z
2023-04-07T13:03:44Z,42.805,6.029,13.3026,4.60087,2470.577,2023-4-07T15:06:36Z
2023-04-07T13:06:47Z,42.805,6.029,13.3023,4.60084,2470.577,2023-4-07T15:09:39Z
2023-04-07T13:09:50Z,42.805,6.029,13.3024,4.60084,2470.553,2023-4-07T15:12:42Z
2023-04-07T13:12:53Z,42.805,6.029,13.3024,4.60088,2470.614,2023-4-07T15:15:45Z
2023-04-07T13:15:56Z,42.805,6.029,13.3025,4.60092,2470.567,2023-4-07T15:18:48Z
2023-04-07T13:18:59Z,42.805,6.029,13.3021,4.60094,2470.544,2023-4-07T15:21:52Z
2023-04-07T13:22:02Z,42.805,6.029,13.3031,4.60093,2470.553,2023-4-07T15:24:55Z
2023-04-07T13:25:05Z,42.805,6.029,13.3031,4.60091,2470.577,2023-4-07T15:27:58Z
2023-04-07T13:28:08Z,42.805,6.029,13.3027,4.60103,2470.553,2023-4-07T15:31:01Z
2023-04-07T13:31:11Z,42.805,6.029,13.3023,4.60104,2470.544,2023-4-07T15:34:04Z
2023-04-07T13:34:15Z,42.805,6.029,13.3026,4.60093,2470.53,2023-4-07T15:37:07Z
2023-04-07T13:37:18Z,42.805,6.029,13.3022,4.60100,2470.567,2023-4-07T15:40:10Z
2023-04-07T13:40:21Z,42.805,6.029,13.3024,4.60102,2470.507,2023-4-07T15:43:13Z
2023-04-07T13:43:24Z,42.805,6.029,13.3024,4.60089,2470.553,2023-4-07T15:46:16Z
2023-04-07T13:46:27Z,42.805,6.029,13.3031,4.60100,2470.53,2023-4-07T15:49:19Z
2023-04-07T13:49:30Z,42.805,6.029,13.3029,4.60097,2470.53,2023-4-07T15:52:22Z
2023-04-07T13:52:33Z,42.805,6.029,13.3030,4.60108,2470.53,2023-4-07T15:55:25Z
2023-04-07T13:55:36Z,42.805,6.029,13.3026,4.60089,2470.553,2023-4-07T15:58:29Z
2023-04-07T13:58:39Z,42.805,6.029,13.3025,4.60097,2470.483,2023-4-07T16:01:32Z
2023-04-07T14:01:42Z,42.805,6.029,13.3028,4.60095,2470.553,2023-4-07T16:04:35Z
2023-04-07T14:04:45Z,42.805,6.029,13.3029,4.60099,2470.577,2023-4-07T16:07:38Z
2023-04-07T14:07:48Z,42.805,6.029,13.3024,4.60097,2470.544,2023-4-07T16:10:41Z
2023-04-07T14:10:52Z,42.805,6.029,13.3024,4.60086,2470.53,2023-4-07T16:13:44Z
2023-04-07T14:13:55Z,42.805,6.029,13.3028,4.60092,2470.507,2023-4-07T16:16:47Z
2023-04-07T14:16:58Z,42.805,6.029,13.3022,4.60092,2470.544,2023-4-07T16:19:50Z
2023-04-07T14:20:01Z,42.805,6.029,13.3024,4.60090,2470.567,2023-4-07T16:22:53Z
2023-04-07T14:23:04Z,42.805,6.029,13.3026,4.60089,2470.553,2023-4-07T16:25:56Z
2023-04-07T14:26:07Z,42.805,6.029,13.3023,4.60085,2470.507,2023-4-07T16:28:59Z
2023-04-07T14:29:10Z,42.805,6.029,13.3031,4.60084,2470.544,2023-4-07T16:32:02Z
2023-04-07T14:32:13Z,42.805,6.029,13.3029,4.60104,2470.544,2023-4-07T16:35:06Z
2023-04-07T14:35:16Z,42.805,6.029,13.3024,4.60091,2470.553,2023-4-07T16:38:09Z
2023-04-07T14:38:19Z,42.805,6.029,13.3025,4.60099,2470.52,2023-4-07T16:41:12Z
2023-04-07T14:41:22Z,42.805,6.029,13.3029,4.60096,2470.544,2023-4-07T16:44:15Z
2023-04-07T14:44:25Z,42.805,6.029,13.3029,4.60091,2470.544,2023-4-07T16:47:18Z
2023-04-07T14:47:29Z,42.805,6.029,13.3028,4.60099,2470.507,2023-4-07T16:50:21Z
2023-04-07T14:50:32Z,42.805,6.029,13.3035,4.60104,2470.507,2023-4-07T16:53:24Z
2023-04-07T14:53:35Z,42.805,6.029,13.3026,4.60093,2470.53,2023-4-07T16:56:27Z
2023-04-07T14:56:38Z,42.805,6.029,13.3029,4.60117,2470.591,2023-4-07T16:59:30Z
2023-04-07T14:59:41Z,42.805,6.029,13.3036,4.60098,2470.53,2023-4-07T17:02:33Z
2023-04-07T15:02:44Z,42.805,6.029,13.3030,4.60108,2470.53,2023-4-07T17:05:36Z
2023-04-07T15:05:47Z,42.805,6.029,13.3038,4.60095,2470.507,2023-4-07T17:08:39Z
2023-04-07T15:08:50Z,42.805,6.029,13.3028,4.60108,2470.53,2023-4-07T17:11:43Z
2023-04-07T15:11:53Z,42.805,6.029,13.3031,4.60122,2470.52,2023-4-07T17:14:46Z
2023-04-07T15:14:56Z,42.805,6.029,13.3045,4.60114,2470.52,2023-4-07T17:17:49Z